Probability
0 0 0 0 0 0 0 0 0 0 0 0 0 1 2 3 1 2 4 2 0 0 0 0 0 0 0 0 0 0 0 0 0 0 0 0 0 0
0 0 0 0 0 0 0 0 0 0 0 0 1 3 5 4 2 2 3 1 0 0 0 0 0 0 0 0 0 0 0 0 0 0 0 0 0 0
1 1 2 2 2 1 0 0 1 1 0 0 2 8 15 16 12 9 4 1 0 0 0 0 0 0 0 0 0 0 0 0 0 0 0 0 0 0
2 3 4 5 4 3 1 1 1 1 0 0 3 12 22 27 25 17 9 4 1 0 0 0 0 0 0 0 0 0 0 0 0 0 0 0 0 0
4 5 6 7 8 7 5 4 3 2 1 1 2 9 19 27 28 20 13 10 5 0 0 0 0 0 0 0 0 0 0 0 0 0 0 0 0 0
6 6 7 8 9 8 7 7 6 4 3 2 2 4 11 20 24 19 14 12 7 2 0 0 0 1 1 0 0 0 0 0 0 0 0 0 0 0
7 6 7 6 5 4 4 4 4 4 4 3 3 2 5 12 15 13 10 8 6 5 3 1 1 3 3 1 0 0 0 0 0 0 0 0 0 0
8 7 5 3 1 0 0 1 1 1 2 2 2 2 3 6 7 7 6 5 5 6 6 3 2 4 3 1 0 0 0 0 0 0 0 0 0 0
7 7 4 1 0 0 0 1 1 1 0 0 0 1 3 4 4 4 5 5 5 6 6 4 3 3 2 1 0 0 0 0 0 0 0 0 0 0
3 3 2 0 0 0 0 2 2 2 0 0 0 0 1 3 3 2 3 4 4 4 3 3 2 2 1 1 0 0 0 0 0 0 0 0 0 0
0 0 0 0 0 0 0 1 1 1 0 0 0 0 0 1 1 0 1 1 1 1 1 1 1 1 1 1 0 0 0 0 0 0 0 0 0 0
0 0 0 0 0 0 0 0 0 0 0 0 0 0 0 0 0 0 0 0 0 0 0 0 0 0 0 0 0 0 0 0 0 0 0 0 0 0
0 0 0 0 0 0 0 0 0 0 0 0 0 0 0 1 0 0 0 0 0 0 0 0 0 0 0 0 0 0 0 0 0 0 0 0 0 0
0 0 0 0 0 0 0 0 0 0 0 0 0 0 0 0 0 0 0 0 0 0 0 0 0 0 0 0 0 0 0 0 1 0 0 0 0 0
0 0 0 0 0 0 0 0 0 0 0 0 0 0 0 0 0 0 0 0 0 0 0 0 0 0 0 0 0 0 0 0 0 0 0 0 0 0
0 0 0 0 0 0 0 0 0 0 0 0 0 0 0 0 0 0 0 0 0 0 0 0 0 0 0 0 0 0 0 0 0 0 0 0 0 0
0 0 0 0 0 0 0 0 0 0 0 0 0 0 0 0 0 0 0 0 0 0 0 0 0 0 0 0 0 0 0 0 0 0 0 0 0 0
0 0 0 0 0 0 0 0 0 0 0 0 0 0 0 0 0 0 0 0 0 0 0 0 0 0 0 0 0 0 0 0 0 0 0 0 0 0
0 0 0 0 0 0 0 0 0 0 0 0 0 0 0 0 0 0 0 0 0 0 0 0 0 0 0 0 0 0 0 0 0 0 0 0 0 0
0 0 0 0 0 0 0 0 0 0 0 0 0 0 0 0 0 0 0 0 0 0 0 0 0 0 0 0 0 0 0 0 0 0 0 0 0 0
0 0 0 0 0 0 0 0 0 0 0 0 0 0 0 0 0 0 0 0 0 0 0 0 0 0 0 0 0 0 0 0 0 0 0 0 0 0
0 0 0 0 0 0 0 0 0 0 0 0 0 0 0 0 0 0 0 0 0 0 0 0 0 0 0 0 0 0 0 0 0 0 0 0 0 0
0 0 0 0 0 0 0 0 0 0 0 0 0 0 0 0 0 0 0 0 0 0 0 0 0 0 0 0 0 0 0 0 0 0 0 0 0 0
Wind_Speed
3 3 2 2 2 2 2 1 1 2 3 2 1 3 3 3 9 6 5 12 14 13 12 12 11 11 11 10 10 10 10 10 10 10 10 10 11 11
1 1 1 2 2 1 1 2 2 2 3 2 1 1 2 3 9 5 4 9 14 14 14 14 14 14 13 13 12 12 12 12 12 12 12 12 12 12
3 3 3 3 2 3 2 2 2 2 3 3 2 1 2 1 3 4 4 4 7 15 17 17 16 15 15 15 14 14 14 14 14 14 13 13 13 13
4 3 3 3 3 3 3 3 3 2 2 4 3 3 2 3 4 4 5 6 5 11 17 18 17 17 16 16 15 15 15 15 14 14 14 14 14 14
2 2 2 2 2 2 3 3 3 4 2 3 4 3 3 3 3 4 6 4 7 8 10 14 16 16 16 16 16 16 16 15 15 15 15 15 15 15
1 0 1 1 1 2 3 3 3 4 4 4 4 4 3 3 2 2 3 3 4 7 5 5 10 14 16 17 17 17 17 16 16 16 16 15 15 15
1 1 2 4 5 3 3 3 3 3 3 4 4 4 3 3 3 3 4 4 4 4 3 4 3 4 6 11 15 16 16 16 17 16 16 16 16 16
2 2 3 5 5 4 4 4 3 3 3 3 4 4 4 4 3 4 4 4 4 3 3 5 5 5 5 5 9 12 14 16 16 16 16 16 16 16
4 4 5 7 8 5 4 3 3 2 1 2 4 4 4 4 4 5 5 5 5 5 5 7 6 7 7 9 11 11 12 13 14 15 16 16 16 16
6 6 6 7 8 7 6 4 4 3 3 2 2 3 4 3 3 4 5 6 6 6 5 7 6 6 8 5 9 12 12 13 13 14 15 15 16 16
6 7 6 6 8 9 6 5 5 4 4 5 5 6 8 9 7 4 4 5 6 6 4 5 5 6 5 5 7 10 10 10 11 13 14 15 16 15
5 7 10 7 7 8 5 5 5 6 7 8 7 7 7 7 8 5 4 5 6 5 3 4 5 6 6 4 4 5 6 9 11 13 14 14 14 9
4 4 4 5 5 5 5 3 4 6 7 7 6 5 4 3 3 2 3 4 5 5 5 5 6 7 7 7 7 6 6 6 6 7 10 13 14 11
4 4 3 4 6 6 4 5 8 8 5 5 5 4 4 4 4 5 5 4 4 6 6 6 6 6 8 9 8 6 6 6 6 6 6 9 11 13
4 5 4 5 6 5 4 6 6 4 5 5 5 5 5 5 5 5 6 5 6 7 7 5 6 6 6 8 9 7 8 7 6 6 6 6 6 6
5 6 7 6 4 6 5 3 2 3 4 5 5 5 5 5 5 6 7 6 6 7 7 7 7 7 7 8 8 9 8 7 6 7 7 7 6 6
7 5 2 2 3 3 4 4 4 5 5 5 6 6 6 6 6 6 6 7 7 7 7 6 7 7 8 9 9 9 9 8 8 7 7 8 7 7
6 4 4 5 5 6 6 6 5 6 6 6 5 6 6 6 6 6 6 6 7 8 8 8 9 9 9 8 7 8 7 8 8 8 8 9 10 8
4 4 5 5 5 5 6 6 6 6 5 5 6 6 6 6 7 7 7 7 7 8 8 8 8 8 10 11 8 7 9 10 10 9 8 9 10 8
4 5 5 5 5 5 6 6 6 6 6 6 6 6 6 7 7 8 7 8 8 9 9 8 7 7 9 11 11 12 12 10 9 10 10 10 10 12
6 6 6 6 5 5 5 5 6 5 6 6 6 7 7 7 8 8 8 10 9 8 9 9 8 11 10 9 10 10 9 11 12 11 11 11 12 11
6 6 6 5 5 5 5 5 6 6 6 6 7 7 8 8 9 10 9 9 9 9 10 9 9 9 8 10 11 12 13 12 12 15 15 14 10 9
6 5 5 5 5 5 5 6 8 7 6 7 8 8 9 9 8 8 9 9 9 10 10 10 9 8 9 10 11 11 14 14 11 10 10 12 14 18
Wind_Direction
229 220 251 274 265 291 311 312 299 302 295 241 190 188 173 147 157 189 189 199 204 209 214 219 223 227 231 234 237 240 242 244 246 247 248 250 252 255
245 258 240 288 287 261 266 278 273 273 285 308 267 201 176 185 173 202 217 201 208 214 218 221 224 228 231 234 237 240 242 243 244 245 246 247 249 250
235 227 226 268 308 314 294 271 264 262 272 287 295 266 170 205 166 221 236 217 213 218 221 224 225 228 230 233 235 238 239 241 242 244 245 246 246 247
230 233 234 238 235 277 300 299 292 284 270 284 294 298 259 224 215 227 249 251 245 230 222 224 226 228 231 233 235 237 239 240 242 243 244 245 246 247
230 233 241 257 259 266 273 292 301 294 270 265 274 274 271 260 246 244 252 260 271 273 238 227 230 233 235 237 238 238 239 241 242 243 244 245 246 247
248 268 291 293 297 293 286 294 299 304 304 295 284 285 282 283 273 266 277 275 275 283 289 257 236 236 238 240 242 242 241 241 242 243 244 245 245 246
13 18 50 56 49 26 351 347 332 319 313 311 305 307 312 333 331 321 302 303 289 281 299 298 280 259 249 249 249 248 245 243 243 242 243 243 243 244
47 51 70 54 45 34 15 1 348 322 322 322 317 319 329 338 336 325 319 314 300 318 333 304 303 291 279 266 258 251 247 244 243 242 241 241 241 242
48 41 41 48 33 15 357 356 21 16 305 298 303 313 320 336 337 324 319 309 291 298 302 287 284 283 279 283 280 272 261 254 250 247 244 242 241 242
61 62 66 52 29 13 358 6 2 11 347 318 319 307 307 306 294 292 290 289 279 273 264 272 277 277 281 280 283 277 266 256 253 249 248 247 247 248
67 60 63 63 34 17 9 4 356 351 341 327 302 287 284 280 272 282 286 291 295 296 297 291 296 302 295 290 288 292 286 275 265 261 258 255 252 253
83 77 62 55 36 22 12 359 350 345 336 325 310 292 278 272 263 242 263 289 298 301 315 325 315 319 305 292 306 316 310 295 284 273 266 261 260 258
53 72 64 35 19 7 352 332 324 318 309 301 298 299 302 302 301 275 253 268 286 292 309 318 310 307 296 298 303 299 296 294 292 285 276 268 264 252
32 40 32 347 333 323 315 305 313 313 300 305 317 328 334 339 340 330 312 295 282 284 288 292 292 295 297 297 298 296 296 296 295 290 286 286 277 264
15 358 323 298 305 303 281 297 313 319 331 336 338 338 337 336 333 328 327 322 315 305 305 302 299 298 294 292 293 294 296 292 286 289 290 288 284 282
359 322 300 286 285 309 326 321 308 341 348 344 343 339 340 340 340 340 333 330 321 313 313 317 313 307 302 296 294 294 291 289 289 287 289 289 287 282
333 310 323 11 2 5 2 3 2 4 5 358 348 343 341 339 335 334 329 324 320 319 322 323 321 313 300 293 291 289 291 291 291 295 296 293 286 281
336 339 12 17 11 7 2 359 3 8 3 349 340 338 335 332 328 327 326 325 321 320 320 321 319 315 309 295 279 291 297 298 299 297 294 290 287 281
331 6 21 17 10 6 3 1 358 356 349 342 341 337 334 331 329 327 325 322 319 318 316 314 314 314 313 309 305 307 306 301 296 292 287 285 286 285
18 19 17 12 10 9 5 359 349 343 344 343 337 336 336 331 327 323 321 320 319 315 310 307 308 311 309 304 300 297 288 284 292 294 294 291 285 281
22 18 15 8 7 4 356 347 340 336 340 338 338 340 336 330 324 320 317 316 313 308 309 309 306 306 299 293 291 292 294 291 284 284 289 292 292 290
17 12 9 2 3 357 350 346 339 338 343 344 342 338 332 325 320 317 316 315 310 308 308 307 307 307 302 299 298 299 301 302 294 284 273 269 277 283
14 7 357 356 3 359 354 344 341 345 350 347 341 332 325 320 315 313 312 310 307 306 306 306 306 303 301 298 298 299 302 305 305 304 296 291 280 271